EW5390 Weather Reports


Display with metric or nautical units.
time (UTC)temp
F
wind
direction
speed
MPH
gust
MPH
rain 1hr
in
rain 24hr
in
rain mn
in
humidity
%
barometer
mb
20260508233554 63 0 0.0 1.0 0.00 0.00 0.00 54 1012.5
20260508233117 64 0 0.0 2.0 0.00 0.00 0.00 55 1012.4
20260508232553 64 136 0.0 2.0 0.00 0.00 0.00 53 1012.4
20260508232054 64 209 0.0 3.0 0.00 0.00 0.00 53 1012.3
20260508231559 65 0 0.0 3.0 0.00 0.00 0.00 53 1012.2
20260508231054 65 0 0.0 3.0 0.00 0.00 0.00 52 1012.2
20260508230554 65 188 0.0 3.0 0.00 0.00 0.00 51 1012.2
20260508230053 65 143 1.0 3.0 0.00 0.00 0.00 51 1012.1
20260508225553 65 0 0.0 3.0 0.00 0.00 0.00 52 1012.1
20260508225055 66 0 0.0 3.0 0.00 0.00 0.00 51 1012.1
20260508224623 66 150 1.0 2.0 0.00 0.00 0.00 51 1012.1
20260508224054 66 0 0.0 2.0 0.00 0.00 0.00 50 1012.1
20260508223558 66 284 0.0 2.0 0.00 0.00 0.00 49 1012.0
20260508223055 66 359 0.0 4.0 0.00 0.00 0.00 50 1012.1
20260508222554 67 168 1.0 4.0 0.00 0.00 0.00 49 1012.1
20260508222053 67 314 0.0 2.0 0.00 0.00 0.00 49 1012.1
20260508221554 67 319 0.0 2.0 0.00 0.00 0.00 50 1012.1
20260508221054 67 267 0.0 2.0 0.00 0.00 0.00 50 1011.9
20260508220554 67 256 0.0 2.0 0.00 0.00 0.00 48 1011.9
20260508220056 67 0 1.0 3.0 0.00 0.00 0.00 49 1012.0
20260508215553 67 217 0.0 5.0 0.00 0.00 0.00 50 1012.0
20260508215056 67 176 1.0 7.0 0.00 0.00 0.00 47 1011.9
20260508214552 67 68 0.0 7.0 0.00 0.00 0.00 47 1012.0
20260508214053 67 315 1.0 6.0 0.00 0.00 0.00 48 1012.0
20260508213553 67 60 1.0 4.0 0.00 0.00 0.00 47 1012.0
20260508213057 67 48 1.0 5.0 0.00 0.00 0.00 46 1011.8
20260508212553 67 248 1.0 5.0 0.00 0.00 0.00 46 1011.9
20260508212053 68 322 1.0 4.0 0.00 0.00 0.00 47 1011.9
20260508211555 67 321 1.0 4.0 0.00 0.00 0.00 47 1011.9
20260508211056 67 10 1.0 4.0 0.00 0.00 0.00 46 1011.9
20260508210554 67 313 1.0 4.0 0.00 0.00 0.00 45 1012.0
20260508210055 68 311 2.0 4.0 0.00 0.00 0.00 47 1012.0
20260508205553 68 285 1.0 3.0 0.00 0.00 0.00 47 1012.0
20260508205054 68 255 1.0 4.0 0.00 0.00 0.00 45 1012.0
20260508204558 68 164 1.0 4.0 0.00 0.00 0.00 45 1012.0
20260508204054 68 72 1.0 6.0 0.00 0.00 0.00 44 1012.0
20260508203557 67 20 1.0 6.0 0.00 0.00 0.00 45 1012.1
20260508203058 67 320 1.0 9.0 0.00 0.00 0.00 45 1012.1
20260508202554 67 312 3.0 9.0 0.00 0.00 0.00 43 1012.1
20260508202054 67 318 2.0 5.0 0.00 0.00 0.00 44 1012.3
20260508201558 67 327 1.0 8.0 0.00 0.00 0.00 47 1012.3
20260508201054 67 302 4.0 8.0 0.00 0.00 0.00 44 1012.3
20260508200552 67 319 3.0 7.0 0.00 0.00 0.00 45 1012.3
20260508200111 67 295 1.0 7.0 0.00 0.00 0.00 43 1012.3
20260508195554 67 205 3.0 6.0 0.00 0.00 0.00 44 1012.5
20260508195053 67 316 1.0 6.0 0.00 0.00 0.00 42 1012.5
20260508194558 67 176 0.0 7.0 0.00 0.00 0.00 43 1012.5
20260508194051 66 260 3.0 7.0 0.00 0.00 0.00 44 1012.7
20260508193556 66 309 2.0 11.0 0.00 0.00 0.00 43 1012.7
20260508193132 66 356 2.0 11.0 0.00 0.00 0.00 46 1012.7
20260508192555 66 313 4.0 11.0 0.00 0.00 0.00 41 1012.8
20260508192055 66 322 1.0 6.0 0.00 0.00 0.00 42 1012.7
20260508191559 66 319 3.0 9.0 0.00 0.00 0.00 41 1012.9
20260508191053 67 307 3.0 9.0 0.00 0.00 0.00 43 1012.9
20260508190554 67 322 3.0 7.0 0.00 0.00 0.00 42 1013.0
20260508190056 66 0 3.0 6.0 0.00 0.00 0.00 43 1013.1
20260508185554 66 305 3.0 6.0 0.00 0.00 0.00 42 1013.0
20260508185054 66 309 2.0 6.0 0.00 0.00 0.00 42 1013.1
20260508184606 66 316 2.0 5.0 0.00 0.00 0.00 45 1013.2
20260508184053 66 314 1.0 4.0 0.00 0.00 0.00 43 1013.2
20260508183553 66 210 1.0 4.0 0.00 0.00 0.00 44 1013.3
20260508183124 65 330 0.0 8.0 0.00 0.00 0.00 41 1013.2
20260508182553 66 312 2.0 9.0 0.00 0.00 0.00 41 1013.3
20260508182052 65 328 5.0 9.0 0.00 0.00 0.00 42 1013.3
20260508181605 65 318 2.0 8.0 0.00 0.00 0.00 40 1013.4
20260508181053 65 318 3.0 10.0 0.00 0.00 0.00 41 1013.5
20260508180553 65 316 2.0 10.0 0.00 0.00 0.00 43 1013.3
20260508180057 65 274 3.0 7.0 0.00 0.00 0.00 41 1013.5
20260508175554 65 21 1.0 5.0 0.00 0.00 0.00 42 1013.5
20260508175055 65 318 2.0 5.0 0.00 0.00 0.00 40 1013.6
20260508174603 65 269 2.0 6.0 0.00 0.00 0.00 43 1013.7
20260508174054 65 315 2.0 10.0 0.00 0.00 0.00 44 1013.7
20260508173554 65 248 4.0 10.0 0.00 0.00 0.00 44 1013.7
20260508173054 64 309 3.0 9.0 0.00 0.00 0.00 44 1013.7
20260508172553 64 325 3.0 8.0 0.00 0.00 0.00 42 1013.6
20260508172055 64 300 2.0 8.0 0.00 0.00 0.00 44 1013.8
20260508171556 64 271 4.0 8.0 0.00 0.00 0.00 46 1013.8
20260508171056 64 313 2.0 6.0 0.00 0.00 0.00 42 1013.9
20260508170553 64 226 2.0 8.0 0.00 0.00 0.00 44 1013.9
20260508170058 64 257 3.0 8.0 0.00 0.00 0.00 46 1014.0
20260508165553 64 318 2.0 8.0 0.00 0.00 0.00 45 1014.1
20260508165053 64 250 3.0 8.0 0.00 0.00 0.00 43 1014.0
20260508164559 64 226 1.0 11.0 0.00 0.00 0.00 46 1014.1
20260508164053 63 311 2.0 11.0 0.00 0.00 0.00 42 1014.2
20260508163554 63 301 2.0 8.0 0.00 0.00 0.00 41 1014.2
20260508163054 63 321 2.0 8.0 0.00 0.00 0.00 44 1014.1
20260508162553 63 312 2.0 6.0 0.00 0.00 0.00 43 1014.2
20260508162055 63 207 3.0 6.0 0.00 0.00 0.00 47 1014.3
20260508161554 63 332 1.0 4.0 0.00 0.00 0.00 45 1014.3
20260508161053 63 320 2.0 7.0 0.00 0.00 0.00 46 1014.4
20260508160554 63 281 1.0 7.0 0.00 0.00 0.00 48 1014.5
20260508160054 63 311 3.0 8.0 0.00 0.00 0.00 45 1014.5
20260508155556 63 321 1.0 8.0 0.00 0.00 0.00 45 1014.5
20260508155055 62 335 3.0 8.0 0.00 0.00 0.00 43 1014.6
20260508154615 62 312 2.0 8.0 0.00 0.00 0.00 44 1014.7
20260508154051 62 321 1.0 8.0 0.00 0.00 0.00 45 1014.8
20260508153556 63 314 0.0 5.0 0.00 0.00 0.00 45 1014.9
20260508153057 62 308 2.0 7.0 0.00 0.00 0.00 44 1014.9
20260508152554 62 200 2.0 7.0 0.00 0.00 0.00 47 1014.9
20260508152055 62 314 3.0 7.0 0.00 0.00 0.00 45 1014.9
20260508151554 62 285 1.0 6.0 0.00 0.00 0.00 48 1014.9
20260508151051 61 0 2.0 7.0 0.00 0.00 0.00 49 1014.9
20260508150557 61 320 3.0 7.0 0.00 0.00 0.00 47 1015.1
20260508150056 62 310 1.0 3.0 0.00 0.00 0.00 48 1015.1
20260508145552 62 335 1.0 3.0 0.00 0.00 0.00 49 1015.0
20260508145052 61 314 1.0 3.0 0.00 0.00 0.00 50 1015.0
20260508144608 61 319 2.0 3.0 0.00 0.00 0.00 47 1015.0
20260508144057 62 337 0.0 2.0 0.00 0.00 0.00 50 1015.0
20260508143552 61 337 1.0 3.0 0.00 0.00 0.00 51 1015.0
20260508143105 60 112 1.0 3.0 0.00 0.00 0.00 50 1015.2
20260508142551 60 313 1.0 2.0 0.00 0.00 0.00 56 1015.2
20260508142055 60 359 0.0 3.0 0.00 0.00 0.00 52 1015.3
20260508141604 59 61 1.0 4.0 0.00 0.00 0.00 55 1015.4
20260508141056 59 62 2.0 4.0 0.00 0.00 0.00 55 1015.4
20260508140554 59 58 1.0 3.0 0.00 0.00 0.00 53 1015.5
20260508140057 59 7 2.0 3.0 0.00 0.00 0.00 51 1015.5
20260508135556 58 307 0.0 3.0 0.00 0.00 0.00 56 1015.5
20260508135053 58 323 2.0 3.0 0.00 0.00 0.00 54 1015.4
20260508134621 58 314 1.0 3.0 0.00 0.00 0.00 58 1015.5
20260508134053 57 0 1.0 3.0 0.00 0.00 0.00 57 1015.6
20260508133552 58 49 1.0 2.0 0.00 0.00 0.00 57 1015.7
20260508133105 57 288 0.0 3.0 0.00 0.00 0.00 60 1015.7
20260508132554 56 0 0.0 3.0 0.00 0.00 0.00 58 1015.7
20260508132056 56 317 1.0 3.0 0.00 0.00 0.00 60 1015.8
20260508131556 56 0 1.0 3.0 0.00 0.00 0.00 62 1015.7
20260508131055 55 67 1.0 3.0 0.00 0.00 0.00 60 1015.7
20260508130554 55 323 1.0 2.0 0.00 0.00 0.00 62 1015.7
20260508130058 55 60 1.0 2.0 0.00 0.00 0.00 64 1015.7
20260508125553 54 335 1.0 2.0 0.00 0.00 0.00 65 1015.7
20260508125055 54 0 1.0 2.0 0.00 0.00 0.00 66 1015.6
20260508124607 54 45 1.0 2.0 0.00 0.00 0.00 67 1015.6
20260508124052 54 14 0.0 2.0 0.00 0.00 0.00 67 1015.6
20260508123552 53 314 0.0 2.0 0.00 0.00 0.00 71 1015.5
20260508123101 53 314 1.0 2.0 0.00 0.00 0.00 71 1015.5
20260508122554 53 0 0.0 1.0 0.00 0.00 0.00 73 1015.4
20260508122052 53 41 0.0 2.0 0.00 0.00 0.00 74 1015.4
20260508121557 52 44 0.0 2.0 0.00 0.00 0.00 76 1015.3
20260508121052 52 44 0.0 2.0 0.00 0.00 0.00 75 1015.3
20260508120555 51 0 0.0 2.0 0.00 0.00 0.00 77 1015.3
20260508120100 51 0 0.0 2.0 0.00 0.00 0.00 78 1015.3
20260508115552 50 0 0.0 1.0 0.00 0.00 0.00 81 1015.1
20260508115055 50 0 0.0 2.0 0.00 0.00 0.00 81 1015.0
20260508114603 50 0 0.0 2.0 0.00 0.00 0.00 80 1015.1
20260508114054 50 354 0.0 1.0 0.00 0.00 0.00 81 1015.1
20260508113553 49 0 0.0 1.0 0.00 0.00 0.00 81 1015.2
20260508113114 49 0 0.0 1.0 0.00 0.00 0.00 81 1015.1
20260508112555 49 0 0.0 1.0 0.00 0.00 0.00 81 1015.0
20260508112051 48 0 0.0 1.0 0.00 0.00 0.00 82 1015.0
20260508111600 48 339 0.0 1.0 0.00 0.00 0.00 83 1014.8
20260508111054 47 0 0.0 0.0 0.00 0.00 0.00 84 1014.8
20260508110553 47 0 0.0 0.0 0.00 0.00 0.00 84 1014.6
20260508105557 47 0 0.0 0.0 0.00 0.00 0.00 86 1014.4
20260508105052 47 0 0.0 0.0 0.00 0.00 0.00 87 1014.4
20260508104603 47 0 0.0 0.0 0.00 0.00 0.00 86 1014.4
20260508104053 47 0 0.0 0.0 0.00 0.00 0.00 85 1014.3
20260508103555 47 0 0.0 0.0 0.00 0.00 0.00 84 1014.2
20260508103059 47 0 0.0 0.0 0.00 0.00 0.00 84 1014.1
20260508102555 47 0 0.0 0.0 0.00 0.00 0.00 83 1014.2
20260508102052 48 0 0.0 1.0 0.00 0.00 0.00 82 1014.1
20260508101558 48 0 0.0 1.0 0.00 0.00 0.00 82 1014.0
20260508101055 48 0 0.0 0.0 0.00 0.00 0.00 81 1014.0
20260508100552 48 0 0.0 0.0 0.00 0.00 0.00 81 1014.0
20260508100112 49 0 0.0 0.0 0.00 0.00 0.00 80 1013.9
20260508095552 49 0 0.0 0.0 0.00 0.00 0.00 80 1013.9
20260508095055 49 0 0.0 1.0 0.00 0.00 0.00 79 1013.8
20260508094604 49 0 0.0 1.0 0.00 0.00 0.00 80 1013.7
20260508094054 49 0 0.0 1.0 0.00 0.00 0.00 80 1013.6
20260508093552 49 0 0.0 1.0 0.00 0.00 0.00 80 1013.5
20260508093056 50 0 0.0 2.0 0.00 0.00 0.00 80 1013.4
20260508092555 50 338 0.0 2.0 0.00 0.00 0.00 80 1013.4
20260508092055 50 0 0.0 3.0 0.00 0.00 0.00 80 1013.4
20260508091603 50 316 0.0 3.0 0.00 0.00 0.00 79 1013.4
20260508091053 50 47 1.0 3.0 0.00 0.00 0.00 80 1013.4
20260508090555 50 0 0.0 2.0 0.00 0.00 0.00 82 1013.3
20260508090114 50 342 0.0 2.0 0.00 0.00 0.00 83 1013.2
20260508085554 49 342 0.0 2.0 0.00 0.00 0.00 85 1013.1
20260508085055 49 0 0.0 1.0 0.00 0.00 0.00 87 1013.1
20260508084558 49 0 0.0 1.0 0.00 0.00 0.00 88 1013.1
20260508084054 49 0 0.0 0.0 0.00 0.00 0.00 88 1013.0
20260508083555 49 302 0.0 0.0 0.00 0.00 0.00 89 1012.9
20260508083059 50 0 0.0 0.0 0.00 0.00 0.00 89 1012.9
20260508082554 50 0 0.0 1.0 0.00 0.00 0.00 89 1012.8
20260508082056 50 0 0.0 1.0 0.00 0.00 0.00 90 1012.8
20260508081604 50 302 0.0 1.0 0.00 0.00 0.00 90 1012.7
20260508081053 50 0 0.0 1.0 0.00 0.00 0.00 90 1012.8
20260508080553 50 0 0.0 1.0 0.00 0.00 0.00 90 1012.6
20260508080055 50 0 0.0 1.0 0.00 0.00 0.00 90 1012.5
20260508075556 50 302 0.0 2.0 0.00 0.00 0.00 90 1012.4
20260508075059 50 302 0.0 2.0 0.00 0.00 0.00 91 1012.3
20260508074555 50 272 1.0 2.0 0.00 0.00 0.00 92 1012.2
20260508074055 50 203 0.0 1.0 0.00 0.00 0.00 92 1012.1
20260508073552 50 0 0.0 1.0 0.00 0.00 0.00 92 1012.1
20260508073110 50 0 0.0 1.0 0.00 0.00 0.00 92 1012.0
20260508072554 50 0 0.0 1.0 0.00 0.00 0.00 92 1011.9
20260508072055 50 0 0.0 2.0 0.00 0.00 0.00 93 1011.8
20260508071605 50 300 0.0 2.0 0.00 0.00 0.00 93 1011.7
20260508071055 50 0 0.0 3.0 0.00 0.00 0.00 93 1011.5
20260508070552 49 292 0.0 3.0 0.00 0.00 0.00 92 1011.3
20260508070058 49 313 1.0 3.0 0.00 0.00 0.00 93 1011.3
20260508065553 49 0 0.0 1.0 0.00 0.04 0.00 92 1011.2
20260508065052 49 0 0.0 1.0 0.00 0.04 0.00 91 1011.0
20260508064612 49 0 0.0 1.0 0.00 0.04 0.00 91 1011.0
20260508064055 49 231 0.0 1.0 0.00 0.04 0.00 91 1011.1
20260508063555 50 0 0.0 1.0 0.00 0.04 0.00 91 1011.0
20260508063109 50 0 0.0 1.0 0.00 0.04 0.00 91 1011.1
20260508062554 50 231 0.0 1.0 0.00 0.04 0.00 91 1011.0
20260508062054 50 166 0.0 0.0 0.00 0.04 0.00 90 1011.0
20260508061606 50 0 0.0 0.0 0.00 0.04 0.00 90 1011.0
20260508061052 50 0 0.0 0.0 0.00 0.04 0.00 90 1011.0
20260508060554 50 0 0.0 0.0 0.00 0.04 0.00 90 1011.1
20260508060105 50 0 0.0 0.0 0.00 0.04 0.00 90 1011.1
20260508055554 50 0 0.0 1.0 0.00 0.19 0.00 90 1011.1
20260508055054 50 0 0.0 1.0 0.00 0.19 0.00 90 1011.0
20260508054556 50 0 0.0 1.0 0.00 0.19 0.00 90 1011.1
20260508054057 50 0 0.0 1.0 0.00 0.19 0.00 90 1011.0
20260508053554 49 0 0.0 1.0 0.00 0.19 0.00 90 1011.1
20260508053058 49 0 0.0 1.0 0.00 0.19 0.00 90 1011.2
20260508052555 49 0 0.0 1.0 0.00 0.19 0.00 90 1011.2
20260508052053 49 0 0.0 1.0 0.00 0.19 0.00 90 1011.1
20260508051607 49 0 0.0 1.0 0.00 0.19 0.00 90 1011.1
20260508051052 49 0 0.0 1.0 0.00 0.19 0.00 90 1011.0
20260508050556 49 0 0.0 1.0 0.00 0.19 0.00 90 1011.1
20260508050055 49 0 0.0 1.0 0.00 0.19 0.00 91 1011.1
20260508045554 49 0 0.0 1.0 0.00 0.21 0.00 91 1011.2
20260508045054 49 0 0.0 1.0 0.00 0.21 0.00 91 1011.1
20260508044554 48 0 0.0 1.0 0.00 0.21 0.00 91 1011.0
20260508044055 48 0 0.0 1.0 0.00 0.21 0.00 91 1010.9
20260508043557 48 0 0.0 0.0 0.00 0.21 0.00 91 1010.9
20260508043055 48 0 0.0 0.0 0.00 0.21 0.00 90 1010.9
20260508042552 48 0 0.0 1.0 0.00 0.21 0.00 90 1010.9
20260508042052 48 0 0.0 1.0 0.00 0.21 0.00 90 1010.9
20260508041555 48 0 0.0 0.0 0.00 0.21 0.00 90 1010.8
20260508041055 48 0 0.0 1.0 0.00 0.21 0.00 90 1010.8
20260508040554 48 0 0.0 1.0 0.00 0.21 0.00 90 1010.8
20260508040100 48 0 0.0 1.0 0.00 0.21 0.00 90 1010.8
20260508035559 49 0 0.0 1.0 0.00 0.21 0.21 90 1010.8
20260508035055 49 0 0.0 1.0 0.00 0.21 0.21 89 1010.8
20260508034554 49 0 0.0 1.0 0.00 0.21 0.21 89 1010.8
20260508034054 49 0 0.0 0.0 0.00 0.21 0.21 89 1010.8
20260508033554 49 0 0.0 0.0 0.00 0.21 0.21 89 1010.8
20260508033059 49 0 0.0 0.0 0.00 0.21 0.21 89 1010.8
20260508032557 49 0 0.0 0.0 0.00 0.21 0.21 89 1010.9
20260508032054 49 0 0.0 0.0 0.00 0.21 0.21 89 1010.9
20260508031558 49 0 0.0 1.0 0.00 0.21 0.21 89 1011.0
20260508031052 49 0 0.0 1.0 0.00 0.21 0.21 89 1011.0
20260508030554 49 0 0.0 1.0 0.00 0.21 0.21 89 1010.8
20260508025554 50 0 0.0 0.0 0.00 0.21 0.21 89 1010.8
20260508025055 50 0 0.0 0.0 0.00 0.21 0.21 89 1010.9
20260508024617 50 0 0.0 0.0 0.00 0.21 0.21 89 1010.8
20260508024053 50 0 0.0 0.0 0.00 0.21 0.21 89 1010.8
20260508023555 50 0 0.0 0.0 0.00 0.21 0.21 88 1010.8
20260508023055 50 0 0.0 0.0 0.00 0.21 0.21 88 1010.7
20260508022551 50 0 0.0 0.0 0.00 0.21 0.21 88 1010.8
20260508022054 50 0 0.0 0.0 0.00 0.21 0.21 88 1010.9
20260508021601 51 0 0.0 0.0 0.00 0.21 0.21 88 1010.8
20260508021053 51 0 0.0 0.0 0.00 0.21 0.21 89 1010.7
20260508020554 51 0 0.0 1.0 0.00 0.21 0.21 89 1010.7
20260508020111 51 0 0.0 1.0 0.00 0.21 0.21 90 1010.8
20260508015552 51 0 0.0 0.0 0.00 0.21 0.21 90 1010.7
20260508015052 51 0 0.0 0.0 0.00 0.21 0.21 89 1010.7
20260508014557 51 0 0.0 0.0 0.00 0.21 0.21 89 1010.6
20260508014055 51 0 0.0 0.0 0.00 0.21 0.21 88 1010.5
20260508013552 51 0 0.0 0.0 0.00 0.21 0.21 88 1010.4
20260508013055 51 0 0.0 0.0 0.00 0.21 0.21 87 1010.4
20260508012555 51 0 0.0 0.0 0.00 0.21 0.21 87 1010.3
20260508012054 52 0 0.0 0.0 0.00 0.21 0.21 87 1010.2
20260508011605 52 0 0.0 0.0 0.00 0.21 0.21 87 1010.1
20260508011053 52 0 0.0 0.0 0.00 0.21 0.21 87 1010.1
20260508010553 52 0 0.0 0.0 0.00 0.21 0.21 86 1010.0
20260508010057 52 0 0.0 0.0 0.00 0.21 0.21 86 1010.1
20260508005607 52 0 0.0 0.0 0.00 0.21 0.21 85 1009.9
20260508005054 53 0 0.0 0.0 0.00 0.21 0.21 85 1010.0
20260508004600 53 0 0.0 1.0 0.00 0.21 0.21 84 1009.9
20260508004051 53 0 0.0 1.0 0.00 0.21 0.21 84 1009.9
20260508003554 54 0 0.0 0.0 0.00 0.21 0.21 83 1009.7
20260508003055 54 0 0.0 0.0 0.00 0.21 0.21 83 1009.7
20260508002554 54 0 0.0 1.0 0.00 0.21 0.21 83 1009.6
20260508002054 54 0 0.0 1.0 0.00 0.21 0.21 83 1009.6
20260508001553 55 0 0.0 0.0 0.00 0.21 0.21 82 1009.5
20260508001053 55 0 0.0 0.0 0.00 0.21 0.21 82 1009.5
20260508000554 56 0 0.0 0.0 0.00 0.21 0.21 82 1009.4
20260508000054 56 0 0.0 0.0 0.00 0.21 0.21 81 1009.3
20260507235553 56 0 0.0 0.0 0.00 0.21 0.21 81 1009.3
20260507235051 57 0 0.0 1.0 0.00 0.21 0.21 80 1009.2
20260507234557 57 0 0.0 1.0 0.00 0.21 0.21 80 1009.1